Sample_No,Timestamps,Temperature,Humidity,TGS2620,TGS2610,TGS2602,TGS2603,TGS822,TGS2600,TGS826,MQ138,Age,Gender,max_BP,min_BP,Heart_Beat,SPO2,Diabetes,BGL,Other Remarks
1,2023-05-27T07:36:39.910483836Z,29.5,37.9,1.23,0.62,0.82,1.04,0.73,1.02,0.11,2.17,26,0,120,80,93,98,0,92,
1,2023-05-27T07:36:42.997131214Z,29.5,38,1.23,0.62,0.82,1.04,0.72,1.02,0.11,2.16,26,0,120,80,93,98,0,92,
1,2023-05-27T07:36:45.636865754Z,29.5,38.1,1.23,0.63,0.83,1.04,0.72,1.02,0.11,2.16,26,0,120,80,93,98,0,92,
1,2023-05-27T07:36:48.722909666Z,29.5,38.1,1.23,0.63,0.83,1.04,0.71,1.02,0.11,2.15,26,0,120,80,93,98,0,92,
1,2023-05-27T07:36:51.791569449Z,29.5,38,1.23,0.64,0.83,1.04,0.71,1.03,0.11,2.14,26,0,120,80,93,98,0,92,
1,2023-05-27T07:36:55.697095287Z,29.6,38,1.23,0.64,0.84,1.04,0.7,1.02,0.11,2.13,26,0,120,80,93,98,0,92,
1,2023-05-27T07:36:58.741903063Z,29.6,38.1,1.23,0.65,0.84,1.04,0.7,1.02,0.11,2.14,26,0,120,80,93,98,0,92,
1,2023-05-27T07:37:02.253312633Z,29.6,38.2,1.23,0.65,0.85,1.04,0.7,1.03,0.11,2.14,26,0,120,80,93,98,0,92,
1,2023-05-27T07:37:05.113665168Z,29.6,38.2,1.23,0.66,0.85,1.04,0.69,1.03,0.11,2.14,26,0,120,80,93,98,0,92,
1,2023-05-27T07:37:08.28189169Z,29.6,38.1,1.23,0.66,0.85,1.03,0.69,1.02,0.11,2.13,26,0,120,80,93,98,0,92,
1,2023-05-27T07:37:11.879560152Z,29.7,37.7,1.23,0.67,0.86,1.03,0.69,1.02,0.11,2.12,26,0,120,80,93,98,0,92,
1,2023-05-27T07:37:15.337918225Z,29.7,37.6,1.22,0.67,0.86,1.02,0.69,1.02,0.11,2.13,26,0,120,80,93,98,0,92,
1,2023-05-27T07:37:18.828369828Z,29.7,37.5,1.22,0.67,0.86,1.02,0.68,1.01,0.11,2.12,26,0,120,80,93,98,0,92,
1,2023-05-27T07:37:22.107174905Z,29.7,37.4,1.22,0.68,0.86,1.02,0.68,1.01,0.11,2.12,26,0,120,80,93,98,0,92,
1,2023-05-27T07:37:25.584661004Z,29.8,37.4,1.22,0.68,0.86,1.02,0.68,1.01,0.11,2.12,26,0,120,80,93,98,0,92,
1,2023-05-27T07:37:29.315250285Z,29.8,37.4,1.22,0.69,0.86,1.02,0.68,1.01,0.11,2.12,26,0,120,80,93,98,0,92,
1,2023-05-27T07:37:31.921360336Z,29.8,37.4,1.22,0.69,0.87,1.02,0.68,1.01,0.11,2.13,26,0,120,80,93,98,0,92,
1,2023-05-27T07:37:34.426050047Z,29.8,37.3,1.22,0.69,0.87,1.01,0.68,1.01,0.11,2.13,26,0,120,80,93,98,0,92,
1,2023-05-27T07:37:37.475657715Z,29.8,37.3,1.22,0.69,0.87,1.02,0.68,1.01,0.11,2.12,26,0,120,80,93,98,0,92,
1,2023-05-27T07:37:40.519601612Z,29.9,37.4,1.22,0.7,0.87,1.02,0.68,1.01,0.11,2.12,26,0,120,80,93,98,0,92,
1,2023-05-27T07:37:43.609990019Z,29.9,37.6,1.22,0.7,0.87,1.02,0.68,1.01,0.11,2.13,26,0,120,80,93,98,0,92,
1,2023-05-27T07:37:46.925372939Z,29.9,37.4,1.22,0.7,0.87,1.02,0.68,1,0.11,2.14,26,0,120,80,93,98,0,92,
1,2023-05-27T07:37:49.544411876Z,29.9,37.2,1.22,0.7,0.87,1.02,0.67,1,0.11,2.12,26,0,120,80,93,98,0,92,
1,2023-05-27T07:37:52.403034745Z,29.9,37.3,1.22,0.7,0.88,1.02,0.68,1,0.11,2.12,26,0,120,80,93,98,0,92,
1,2023-05-27T07:37:55.26999286Z,30,37.5,1.22,0.71,0.88,1.02,0.67,1,0.11,2.12,26,0,120,80,93,98,0,92,
1,2023-05-27T07:37:58.143750774Z,30,37.2,1.22,0.71,0.88,1.03,0.67,1,0.11,2.13,26,0,120,80,93,98,0,92,
1,2023-05-27T07:38:01.00797427Z,30,37.3,1.22,0.71,0.88,1.03,0.67,1,0.11,2.13,26,0,120,80,93,98,0,92,
1,2023-05-27T07:38:04.286172458Z,30.1,37.5,1.21,0.71,0.88,1.03,0.67,1,0.11,2.13,26,0,120,80,93,98,0,92,
1,2023-05-27T07:38:07.387317874Z,30.1,37.3,1.21,0.72,0.88,1.03,0.67,1,0.11,2.14,26,0,120,80,93,98,0,92,
1,2023-05-27T07:38:10.240059778Z,30.1,37.3,1.2,0.72,0.88,1.03,0.67,1,0.11,2.13,26,0,120,80,93,98,0,92,
1,2023-05-27T07:38:12.697755595Z,30.2,37.1,1.21,0.72,0.88,1.03,0.67,1,0.11,2.12,26,0,120,80,93,98,0,92,
1,2023-05-27T07:38:16.36040759Z,30.2,37,1.21,0.72,0.88,1.03,0.67,1,0.11,2.12,26,0,120,80,93,98,0,92,
1,2023-05-27T07:38:19.661429534Z,30.2,37,1.21,0.72,0.89,1.03,0.67,1,0.11,2.12,26,0,120,80,93,98,0,92,
1,2023-05-27T07:38:22.706181945Z,30.2,37,1.2,0.72,0.89,1.03,0.67,1,0.11,2.12,26,0,120,80,93,98,0,92,
1,2023-05-27T07:38:25.597280202Z,30.2,36.8,1.2,0.72,0.89,1.03,0.67,1,0.11,2.13,26,0,120,80,93,98,0,92,
1,2023-05-27T07:38:28.668496049Z,30.3,36.9,1.2,0.73,0.89,1.03,0.67,0.99,0.11,2.13,26,0,120,80,93,98,0,92,
1,2023-05-27T07:38:31.728976844Z,30.3,36.9,1.2,0.73,0.89,1.03,0.67,1,0.11,2.12,26,0,120,80,93,98,0,92,
1,2023-05-27T07:38:35.003373788Z,30.3,36.9,1.2,0.73,0.89,1.03,0.67,1,0.11,2.13,26,0,120,80,93,98,0,92,
1,2023-05-27T07:38:38.28883452Z,30.3,36.9,1.2,0.73,0.89,1.03,0.67,1,0.11,2.12,26,0,120,80,93,98,0,92,
1,2023-05-27T07:38:40.968886633Z,30.3,36.8,1.2,0.73,0.89,1.03,0.67,1,0.11,2.12,26,0,120,80,93,98,0,92,
1,2023-05-27T07:38:43.602044369Z,30.4,36.7,1.2,0.73,0.89,1.03,0.67,1,0.11,2.12,26,0,120,80,93,98,0,92,
1,2023-05-27T07:38:46.465398218Z,30.4,36.5,1.2,0.73,0.89,1.03,0.67,1,0.11,2.13,26,0,120,80,93,98,0,92,
1,2023-05-27T07:38:49.765441846Z,30.4,36.7,1.2,0.74,0.89,1.03,0.67,0.99,0.11,2.13,26,0,120,80,93,98,0,92,
1,2023-05-27T07:38:53.036596347Z,30.4,36.8,1.2,0.74,0.89,1.03,0.67,0.99,0.11,2.12,26,0,120,80,93,98,0,92,
1,2023-05-27T07:38:55.908916998Z,30.4,36.7,1.2,0.74,0.89,1.02,0.67,0.99,0.11,2.13,26,0,120,80,93,98,0,92,
1,2023-05-27T07:38:58.966375Z,30.5,36.7,1.2,0.74,0.89,1.02,0.67,0.99,0.11,2.14,26,0,120,80,93,98,0,92,
1,2023-05-27T07:39:02.451913148Z,30.5,36.8,1.2,0.74,0.9,1.03,0.67,0.99,0.11,2.14,26,0,120,80,93,98,0,92,
1,2023-05-27T07:39:05.945170163Z,30.5,36.8,1.2,0.74,0.9,1.04,0.67,0.99,0.11,2.14,26,0,120,80,93,98,0,92,
1,2023-05-27T07:39:08.792620887Z,30.6,36.9,1.2,0.74,0.9,1.05,0.67,0.99,0.11,2.14,26,0,120,80,93,98,0,92,
1,2023-05-27T07:39:12.949815742Z,30.6,36.9,1.2,0.74,0.9,1.05,0.67,0.99,0.11,2.13,26,0,120,80,93,98,0,92,
1,2023-05-27T07:39:16.198261309Z,30.6,37.1,1.21,0.74,0.9,1.05,0.67,0.99,0.11,2.13,26,0,120,80,93,98,0,92,
1,2023-05-27T07:39:18.827738296Z,30.7,36.7,1.2,0.74,0.9,1.05,0.67,0.99,0.11,2.13,26,0,120,80,93,98,0,92,
1,2023-05-27T07:39:22.321144851Z,30.7,36.5,1.2,0.74,0.89,1.05,0.64,0.99,0.11,1.9,26,0,120,80,93,98,0,92,
1,2023-05-27T07:39:25.607473165Z,30.7,36.5,1.17,0.74,0.76,1.07,0.59,0.97,0.11,1.4,26,0,120,80,93,98,0,92,
1,2023-05-27T07:39:28.461380671Z,30.5,36.2,1.21,0.73,0.79,1.11,0.59,0.99,0.11,1.72,26,0,120,80,93,98,0,92,
1,2023-05-27T07:39:31.546948607Z,30.4,36.2,1.22,0.72,0.84,1.11,0.64,1.01,0.11,2.08,26,0,120,80,93,98,0,92,
1,2023-05-27T07:39:34.204302079Z,30.4,36.2,1.22,0.71,0.86,1.09,0.67,1.01,0.11,2.2,26,0,120,80,93,98,0,92,
1,2023-05-27T07:39:37.675948381Z,30.4,36.3,1.22,0.71,0.86,1.07,0.68,1.01,0.11,2.23,26,0,120,80,93,98,0,92,
1,2023-05-27T07:39:40.545523053Z,30.4,36.6,1.22,0.7,0.86,1.06,0.7,1.01,0.11,2.22,26,0,120,80,93,98,0,92,
1,2023-05-27T07:39:44.022062696Z,30.4,36.7,1.22,0.7,0.86,1.05,0.7,1.01,0.11,2.2,26,0,120,80,93,98,0,92,
1,2023-05-27T07:39:46.903441954Z,30.5,36.6,1.22,0.7,0.81,1.06,0.69,1.01,0.11,2.07,26,0,120,80,93,98,0,92,
1,2023-05-27T07:39:49.971729247Z,30.4,36.4,1.21,0.7,0.78,1.08,0.68,1.01,0.11,2.05,26,0,120,80,93,98,0,92,
1,2023-05-27T07:39:52.827032057Z,30.4,36.4,1.21,0.69,0.83,1.08,0.69,1,0.11,2.15,26,0,120,80,93,98,0,92,
1,2023-05-27T07:39:55.905851657Z,30.4,36.3,1.2,0.69,0.84,1.07,0.69,1,0.11,2.17,26,0,120,80,93,98,0,92,
1,2023-05-27T07:39:58.785206382Z,30.4,36.5,1.21,0.69,0.84,1.05,0.7,1,0.11,2.17,26,0,120,80,93,98,0,92,
1,2023-05-27T07:40:02.043747118Z,30.4,36.5,1.21,0.68,0.84,1.04,0.7,1,0.11,2.17,26,0,120,80,93,98,0,92,
1,2023-05-27T07:40:05.114283078Z,30.4,36.6,1.21,0.69,0.84,1.03,0.69,1,0.11,2.17,26,0,120,80,93,98,0,92,
1,2023-05-27T07:40:07.816836468Z,30.4,36.9,1.21,0.69,0.84,1.03,0.69,1,0.11,2.17,26,0,120,80,93,98,0,92,
1,2023-05-27T07:40:10.744413365Z,30.4,37.2,1.21,0.69,0.84,1.02,0.69,1,0.11,2.17,26,0,120,80,93,98,0,92,
1,2023-05-27T07:40:14.120790256Z,30.4,37.5,1.21,0.69,0.84,1.02,0.69,1,0.11,2.17,26,0,120,80,93,98,0,92,
1,2023-05-27T07:40:17.447465078Z,30.5,37.9,1.21,0.69,0.84,1.03,0.69,1,0.11,2.17,26,0,120,80,93,98,0,92,
1,2023-05-27T07:40:21.318827104Z,30.5,38.2,1.26,0.69,1.09,1.24,0.73,1.01,0.11,2.19,26,0,120,80,93,98,0,92,
1,2023-05-27T07:40:24.363033819Z,30.5,38.8,1.31,0.7,1.41,1.62,0.77,1.05,0.11,2.22,26,0,120,80,93,98,0,92,
1,2023-05-27T07:40:27.437401314Z,30.6,39.4,1.37,0.7,1.77,1.86,0.82,1.09,0.11,2.25,26,0,120,80,93,98,0,92,
1,2023-05-27T07:40:30.728410292Z,30.6,39.7,1.43,0.7,2.14,2.1,0.88,1.13,0.11,2.28,26,0,120,80,93,98,0,92,
1,2023-05-27T07:40:33.619725603Z,30.6,39.9,1.48,0.7,2.4,2.3,0.93,1.17,0.11,2.31,26,0,120,80,93,98,0,92,
1,2023-05-27T07:40:36.236172007Z,30.6,39.9,1.51,0.7,2.51,2.4,0.95,1.2,0.11,2.32,26,0,120,80,93,98,0,92,
1,2023-05-27T07:40:38.920008132Z,30.7,40.1,1.54,0.72,2.58,2.48,0.98,1.23,0.13,2.33,26,0,120,80,93,98,0,92,
1,2023-05-27T07:40:42.829629838Z,30.7,40.3,1.55,0.71,2.61,2.54,0.99,1.24,0.13,2.34,26,0,120,80,93,98,0,92,
1,2023-05-27T07:40:45.936221011Z,30.7,40.5,1.57,0.72,2.62,2.59,1.01,1.26,0.13,2.35,26,0,120,80,93,98,0,92,
1,2023-05-27T07:40:48.749286947Z,30.7,40.9,1.58,0.72,2.63,2.63,1.02,1.27,0.13,2.36,26,0,120,80,93,98,0,92,
1,2023-05-27T07:40:51.607619251Z,30.8,41.3,1.59,0.72,2.63,2.65,1.04,1.28,0.13,2.36,26,0,120,80,93,98,0,92,
1,2023-05-27T07:40:54.885394795Z,30.9,41.7,1.59,0.72,2.63,2.66,1.05,1.29,0.13,2.36,26,0,120,80,93,98,0,92,
1,2023-05-27T07:40:58.383302182Z,30.9,42,1.6,0.72,2.62,2.68,1.06,1.3,0.13,2.37,26,0,120,80,93,98,0,92,
1,2023-05-27T07:41:01.662107447Z,30.9,42.2,1.6,0.73,2.62,2.69,1.07,1.3,0.13,2.38,26,0,120,80,93,98,0,92,
1,2023-05-27T07:41:04.502828807Z,31,42.6,1.61,0.73,2.61,2.69,1.08,1.31,0.13,2.38,26,0,120,80,93,98,0,92,
1,2023-05-27T07:41:08.014387924Z,31,42.9,1.61,0.73,2.6,2.7,1.08,1.31,0.13,2.39,26,0,120,80,93,98,0,92,
1,2023-05-27T07:41:10.864603844Z,31.1,43.2,1.61,0.73,2.58,2.71,1.09,1.31,0.13,2.39,26,0,120,80,93,98,0,92,
1,2023-05-27T07:41:14.345821298Z,31.1,43.5,1.62,0.73,2.58,2.71,1.1,1.32,0.13,2.4,26,0,120,80,93,98,0,92,
1,2023-05-27T07:41:18.252549097Z,31.2,43.9,1.62,0.74,2.57,2.71,1.1,1.32,0.13,2.4,26,0,120,80,93,98,0,92,
1,2023-05-27T07:41:21.110414102Z,31.2,44.1,1.63,0.74,2.55,2.72,1.11,1.33,0.13,2.41,26,0,120,80,93,98,0,92,
1,2023-05-27T07:41:24.387488175Z,31.3,44.4,1.63,0.74,2.54,2.72,1.11,1.33,0.13,2.41,26,0,120,80,93,98,0,92,
1,2023-05-27T07:41:27.253572289Z,31.4,44.7,1.63,0.74,2.53,2.72,1.12,1.33,0.13,2.41,26,0,120,80,93,98,0,92,
1,2023-05-27T07:41:30.163438493Z,31.4,44.9,1.63,0.74,2.52,2.72,1.12,1.33,0.13,2.42,26,0,120,80,93,98,0,92,
1,2023-05-27T07:41:33.459951983Z,31.4,45.2,1.63,0.74,2.51,2.72,1.12,1.34,0.13,2.42,26,0,120,80,93,98,0,92,
1,2023-05-27T07:41:36.452993312Z,31.5,45.5,1.63,0.74,2.5,2.72,1.12,1.34,0.13,2.42,26,0,120,80,93,98,0,92,
1,2023-05-27T07:41:39.139556589Z,31.6,45.8,1.64,0.74,2.48,2.72,1.13,1.34,0.13,2.43,26,0,120,80,93,98,0,92,
1,2023-05-27T07:41:42.601688721Z,31.6,46.1,1.64,0.74,2.47,2.72,1.13,1.34,0.13,2.43,26,0,120,80,93,98,0,92,
1,2023-05-27T07:41:45.66677888Z,31.6,46.2,1.64,0.74,2.46,2.72,1.13,1.34,0.13,2.43,26,0,120,80,93,98,0,92,
1,2023-05-27T07:41:49.202964125Z,31.7,46.5,1.64,0.75,2.45,2.72,1.13,1.34,0.13,2.44,26,0,120,80,93,98,0,92,
1,2023-05-27T07:41:52.643611565Z,31.8,46.8,1.64,0.74,2.43,2.72,1.13,1.34,0.13,2.44,26,0,120,80,93,98,0,92,
1,2023-05-27T07:41:55.092970666Z,31.8,47,1.65,0.75,2.42,2.72,1.14,1.35,0.13,2.44,26,0,120,80,93,98,0,92,
1,2023-05-27T07:41:58.427287008Z,31.9,47.3,1.65,0.75,2.42,2.72,1.14,1.35,0.13,2.45,26,0,120,80,93,98,0,92,
1,2023-05-27T07:42:01.453692176Z,31.9,47.5,1.65,0.75,2.41,2.72,1.14,1.35,0.13,2.45,26,0,120,80,93,98,0,92,
1,2023-05-27T07:42:04.304191576Z,32,47.8,1.65,0.75,2.4,2.72,1.14,1.36,0.13,2.45,26,0,120,80,93,98,0,92,
1,2023-05-27T07:42:07.158972478Z,32,48,1.65,0.75,2.39,2.71,1.15,1.36,0.13,2.46,26,0,120,80,93,98,0,92,
1,2023-05-27T07:42:10.889940253Z,32,48.2,1.65,0.75,2.38,2.71,1.15,1.36,0.13,2.45,26,0,120,80,93,98,0,92,
1,2023-05-27T07:42:13.5197994Z,32.1,48.4,1.66,0.75,2.37,2.71,1.15,1.36,0.13,2.46,26,0,120,80,93,98,0,92,
1,2023-05-27T07:42:17.004599626Z,32.1,48.6,1.66,0.75,2.35,2.71,1.14,1.36,0.12,2.47,26,0,120,80,93,98,0,92,
1,2023-05-27T07:42:20.305005731Z,32.2,48.8,1.65,0.75,2.24,2.61,1.12,1.35,0.12,2.41,26,0,120,80,93,98,0,92,
1,2023-05-27T07:42:23.378831484Z,32.2,46.2,1.63,0.76,1.97,2.45,1.07,1.32,0.12,2.3,26,0,120,80,93,98,0,92,
1,2023-05-27T07:42:27.249785116Z,32.2,43.1,1.55,0.76,1.84,2.39,1.03,1.28,0.12,2.27,26,0,120,80,93,98,0,92,
1,2023-05-27T07:42:30.627718406Z,32.2,40.4,1.48,0.76,1.64,2.24,1,1.23,0.12,2.24,26,0,120,80,93,98,0,92,
1,2023-05-27T07:42:34.21854892Z,32.2,38.4,1.43,0.76,1.47,2.11,0.96,1.2,0.12,2.22,26,0,120,80,93,98,0,92,
1,2023-05-27T07:42:36.86181136Z,32.2,37.7,1.4,0.76,1.36,2.01,0.93,1.17,0.12,2.2,26,0,120,80,93,98,0,92,
1,2023-05-27T07:42:40.139867062Z,32.3,37.1,1.37,0.76,1.29,1.94,0.92,1.15,0.12,2.18,26,0,120,80,93,98,0,92,
1,2023-05-27T07:42:44.496651599Z,32.2,36.3,1.35,0.76,1.21,1.84,0.89,1.12,0.12,2.18,26,0,120,80,93,98,0,92,
1,2023-05-27T07:42:47.715973159Z,32.2,36.2,1.32,0.76,1.14,1.73,0.87,1.1,0.12,2.15,26,0,120,80,93,98,0,92,
1,2023-05-27T07:42:50.997550178Z,32.2,35.9,1.31,0.76,1.09,1.67,0.85,1.08,0.12,2.15,26,0,120,80,93,98,0,92,
1,2023-05-27T07:42:54.707254642Z,32.2,35.6,1.3,0.76,1.06,1.62,0.84,1.07,0.12,2.16,26,0,120,80,93,98,0,92,
1,2023-05-27T07:42:58.369559158Z,32.2,35.5,1.29,0.77,1.04,1.56,0.82,1.06,0.12,2.15,26,0,120,80,93,98,0,92,
1,2023-05-27T07:43:01.632305251Z,32.2,35.3,1.28,0.77,1.02,1.51,0.81,1.04,0.12,2.15,26,0,120,80,93,98,0,92,
1,2023-05-27T07:43:04.502023911Z,32.3,35.2,1.27,0.76,1.01,1.48,0.8,1.04,0.12,2.14,26,0,120,80,93,98,0,92,
1,2023-05-27T07:43:07.846229611Z,32.3,35.1,1.27,0.76,1,1.45,0.79,1.04,0.12,2.14,26,0,120,80,93,98,0,92,
1,2023-05-27T07:43:10.881755504Z,32.3,35,1.26,0.76,0.99,1.44,0.78,1.03,0.12,2.13,26,0,120,80,93,98,0,92,
1,2023-05-27T07:43:14.383728773Z,32.3,34.8,1.25,0.77,0.98,1.41,0.78,1.03,0.12,2.13,26,0,120,80,93,98,0,92,
1,2023-05-27T07:43:18.097246462Z,32.3,34.8,1.25,0.77,0.98,1.39,0.77,1.02,0.12,2.14,26,0,120,80,93,98,0,92,
1,2023-05-27T07:43:21.309402558Z,32.3,34.6,1.24,0.77,0.97,1.36,0.76,1.02,0.12,2.13,26,0,120,80,93,98,0,92,
1,2023-05-27T07:43:24.171618445Z,32.3,34.6,1.24,0.77,0.97,1.33,0.76,1.01,0.12,2.13,26,0,120,80,93,98,0,92,
1,2023-05-27T07:43:27.494868728Z,32.3,34.4,1.24,0.77,0.96,1.31,0.75,1.01,0.12,2.13,26,0,120,80,93,98,0,92,
1,2023-05-27T07:43:30.527534515Z,32.3,34.4,1.23,0.77,0.96,1.29,0.75,1.01,0.12,2.12,26,0,120,80,93,98,0,92,
1,2023-05-27T07:43:33.614352564Z,32.3,34.3,1.23,0.77,0.95,1.28,0.74,1,0.12,2.13,26,0,120,80,93,98,0,92,
1,2023-05-27T07:43:36.453962386Z,32.3,34.3,1.23,0.77,0.95,1.27,0.74,1,0.12,2.13,26,0,120,80,93,98,0,92,
1,2023-05-27T07:43:40.154925227Z,32.3,34.3,1.23,0.77,0.95,1.26,0.73,0.99,0.12,2.06,26,0,120,80,93,98,0,92,
1,2023-05-27T07:43:43.701984801Z,32.3,34.4,1.22,0.76,0.9,1.27,0.65,0.98,0.12,1.81,26,0,120,80,93,98,0,92,
1,2023-05-27T07:43:46.953837298Z,31.7,33.9,1.21,0.75,0.86,1.28,0.63,1.02,0.12,3.09,26,0,120,80,93,98,0,92,
1,2023-05-27T07:43:51.34925988Z,31.5,34,1.23,0.74,0.89,1.28,0.7,1.03,0.12,3.46,26,0,120,80,93,98,0,92,
1,2023-05-27T07:43:54.692706566Z,31.6,34.2,1.22,0.72,0.85,1.28,0.7,1.03,0.12,3.17,26,0,120,80,93,98,0,92,
1,2023-05-27T07:43:58.17943483Z,31.3,34.4,1.24,0.72,0.89,1.28,0.74,1.04,0.12,3.03,26,0,120,80,93,98,0,92,
1,2023-05-27T07:44:02.067425446Z,31.4,34.8,1.24,0.71,0.89,1.24,0.75,1.03,0.12,2.76,26,0,120,80,93,98,0,92,
1,2023-05-27T07:44:05.14678306Z,31.4,34.8,1.21,0.71,0.81,1.21,0.72,1.03,0.12,2.45,26,0,120,80,93,98,0,92,
1,2023-05-27T07:44:08.337639913Z,31.3,34.8,1.22,0.7,0.75,1.23,0.68,1.02,0.12,2.07,26,0,120,80,93,98,0,92,
1,2023-05-27T07:44:11.269836039Z,31.1,34.7,1.25,0.69,0.82,1.26,0.73,1.05,0.12,2.41,26,0,120,80,93,98,0,92,
1,2023-05-27T07:44:14.557929893Z,31.1,35,1.23,0.69,0.8,1.25,0.69,1.02,0.12,2.08,26,0,120,80,93,98,0,92,
1,2023-05-27T07:44:17.619115068Z,31,35.1,1.27,0.68,0.85,1.25,0.74,1.06,0.12,2.42,26,0,120,80,93,98,0,92,
1,2023-05-27T07:44:21.106313823Z,31,35.1,1.25,0.68,0.8,1.23,0.72,1.06,0.12,2.25,26,0,120,80,93,98,0,92,
1,2023-05-27T07:44:24.424937913Z,30.9,35,1.25,0.67,0.78,1.25,0.68,1.05,0.12,2.2,26,0,120,80,93,98,0,92,
1,2023-05-27T07:44:28.091794086Z,30.7,35,1.27,0.66,0.84,1.24,0.74,1.07,0.12,2.48,26,0,120,80,93,98,0,92,
1,2023-05-27T07:44:30.57489179Z,30.7,35,1.23,0.66,0.79,1.2,0.71,1.04,0.12,2.14,26,0,120,80,93,98,0,92,
1,2023-05-27T07:44:34.001658017Z,30.6,35.1,1.21,0.65,0.76,1.22,0.62,0.99,0.12,1.75,26,0,120,80,93,98,0,92,
1,2023-05-27T07:44:36.887223132Z,30.4,35.2,1.27,0.65,0.82,1.23,0.71,1.08,0.12,2.33,26,0,120,80,93,98,0,92,
1,2023-05-27T07:44:39.734862601Z,30.4,35.3,1.26,0.64,0.79,1.21,0.71,1.08,0.12,2.19,26,0,120,80,93,98,0,92,
2,2023-05-27T07:44:42.670993546Z,30.1,35.2,1.24,0.64,0.76,1.23,0.63,1.05,0.12,2.04,64,0,140,80,101,98,1,301,"pain, eye irritation, kidney issue, uric acid is high"
2,2023-05-27T07:44:45.698631583Z,29.9,35.3,1.26,0.63,0.78,1.23,0.67,1.08,0.12,2.32,64,0,140,80,101,98,1,301,"pain, eye irritation, kidney issue, uric acid is high"
2,2023-05-27T07:44:48.550607351Z,29.9,35.5,1.27,0.63,0.8,1.22,0.73,1.09,0.12,2.51,64,0,140,80,101,98,1,301,"pain, eye irritation, kidney issue, uric acid is high"
2,2023-05-27T07:44:51.012005253Z,29.8,35.6,1.27,0.62,0.82,1.21,0.79,1.1,0.12,2.59,64,0,140,80,101,98,1,301,"pain, eye irritation, kidney issue, uric acid is high"
2,2023-05-27T07:44:54.492406528Z,29.8,35.8,1.27,0.62,0.83,1.19,0.81,1.09,0.12,2.55,64,0,140,80,101,98,1,301,"pain, eye irritation, kidney issue, uric acid is high"
2,2023-05-27T07:44:57.76539996Z,29.9,36,1.27,0.62,0.82,1.16,0.82,1.07,0.12,2.47,64,0,140,80,101,98,1,301,"pain, eye irritation, kidney issue, uric acid is high"
2,2023-05-27T07:45:01.083234118Z,29.9,36.3,1.26,0.62,0.82,1.15,0.81,1.07,0.12,2.38,64,0,140,80,101,98,1,301,"pain, eye irritation, kidney issue, uric acid is high"
2,2023-05-27T07:45:03.922824674Z,29.9,36.5,1.26,0.63,0.81,1.13,0.8,1.05,0.12,2.27,64,0,140,80,101,98,1,301,"pain, eye irritation, kidney issue, uric acid is high"
2,2023-05-27T07:45:06.983143593Z,29.9,36.6,1.21,0.63,0.75,1.14,0.72,1.03,0.12,1.83,64,0,140,80,101,98,1,301,"pain, eye irritation, kidney issue, uric acid is high"
2,2023-05-27T07:45:10.126480858Z,29.8,36.5,1.26,0.63,0.76,1.19,0.73,1.07,0.12,1.97,64,0,140,80,101,98,1,301,"pain, eye irritation, kidney issue, uric acid is high"
2,2023-05-27T07:45:13.165687106Z,29.7,36.5,1.28,0.62,0.81,1.19,0.76,1.08,0.12,2.26,64,0,140,80,101,98,1,301,"pain, eye irritation, kidney issue, uric acid is high"
2,2023-05-27T07:45:16.240417914Z,29.7,36.6,1.29,0.63,0.82,1.17,0.78,1.08,0.12,2.34,64,0,140,80,101,98,1,301,"pain, eye irritation, kidney issue, uric acid is high"
2,2023-05-27T07:45:19.462262615Z,29.7,36.7,1.28,0.63,0.82,1.15,0.79,1.08,0.12,2.32,64,0,140,80,101,98,1,301,"pain, eye irritation, kidney issue, uric acid is high"
2,2023-05-27T07:45:23.594195068Z,29.7,36.8,1.28,0.63,0.82,1.13,0.79,1.07,0.12,2.29,64,0,140,80,101,98,1,301,"pain, eye irritation, kidney issue, uric acid is high"
2,2023-05-27T07:45:27.326869892Z,29.7,36.9,1.27,0.63,0.82,1.12,0.78,1.06,0.12,2.26,64,0,140,80,101,98,1,301,"pain, eye irritation, kidney issue, uric acid is high"
2,2023-05-27T07:45:30.350857439Z,29.7,36.9,1.26,0.64,0.82,1.12,0.77,1.06,0.12,2.24,64,0,140,80,101,98,1,301,"pain, eye irritation, kidney issue, uric acid is high"
2,2023-05-27T07:45:33.820777135Z,29.7,36.9,1.26,0.64,0.83,1.11,0.76,1.05,0.12,2.22,64,0,140,80,101,98,1,301,"pain, eye irritation, kidney issue, uric acid is high"
2,2023-05-27T07:45:36.688283474Z,29.7,36.9,1.26,0.64,0.83,1.1,0.75,1.05,0.12,2.2,64,0,140,80,101,98,1,301,"pain, eye irritation, kidney issue, uric acid is high"
2,2023-05-27T07:45:39.144988522Z,29.8,37.1,1.25,0.65,0.83,1.09,0.74,1.05,0.12,2.19,64,0,140,80,101,98,1,301,"pain, eye irritation, kidney issue, uric acid is high"
2,2023-05-27T07:45:42.231894464Z,29.8,36.9,1.25,0.65,0.83,1.1,0.74,1.04,0.12,2.19,64,0,140,80,101,98,1,301,"pain, eye irritation, kidney issue, uric acid is high"
2,2023-05-27T07:45:45.703489468Z,29.8,37,1.25,0.66,0.84,1.1,0.73,1.04,0.12,2.18,64,0,140,80,101,98,1,301,"pain, eye irritation, kidney issue, uric acid is high"
2,2023-05-27T07:45:48.550618373Z,29.8,37.2,1.25,0.66,0.84,1.1,0.73,1.04,0.12,2.17,64,0,140,80,101,98,1,301,"pain, eye irritation, kidney issue, uric acid is high"
2,2023-05-27T07:45:52.044138235Z,29.9,37.5,1.24,0.66,0.84,1.09,0.72,1.03,0.12,2.17,64,0,140,80,101,98,1,301,"pain, eye irritation, kidney issue, uric acid is high"
2,2023-05-27T07:45:55.319015845Z,29.9,37.4,1.22,0.67,0.8,1.08,0.61,1,0.12,1.64,64,0,140,80,101,98,1,301,"pain, eye irritation, kidney issue, uric acid is high"
2,2023-05-27T07:45:58.607483007Z,29.7,36.6,1.23,0.67,0.82,1.1,0.6,1.04,0.12,1.89,64,0,140,80,101,98,1,301,"pain, eye irritation, kidney issue, uric acid is high"
2,2023-05-27T07:46:02.317489692Z,29.7,36.5,1.24,0.66,0.83,1.1,0.67,1.05,0.12,2.13,64,0,140,80,101,98,1,301,"pain, eye irritation, kidney issue, uric acid is high"
2,2023-05-27T07:46:06.173552255Z,29.7,36.3,1.24,0.66,0.83,1.08,0.7,1.04,0.12,2.16,64,0,140,80,101,98,1,301,"pain, eye irritation, kidney issue, uric acid is high"
2,2023-05-27T07:46:09.698032483Z,29.7,36.3,1.23,0.66,0.83,1.08,0.72,1.04,0.12,2.16,64,0,140,80,101,98,1,301,"pain, eye irritation, kidney issue, uric acid is high"
2,2023-05-27T07:46:12.519133119Z,29.7,36.4,1.23,0.66,0.82,1.09,0.68,1.03,0.12,2.03,64,0,140,80,101,98,1,301,"pain, eye irritation, kidney issue, uric acid is high"
2,2023-05-27T07:46:15.38435399Z,29.6,36.3,1.23,0.66,0.82,1.09,0.71,1.04,0.12,2.15,64,0,140,80,101,98,1,301,"pain, eye irritation, kidney issue, uric acid is high"
2,2023-05-27T07:46:19.084443403Z,29.6,36.3,1.22,0.66,0.82,1.08,0.72,1.04,0.12,2.18,64,0,140,80,101,98,1,301,"pain, eye irritation, kidney issue, uric acid is high"
2,2023-05-27T07:46:22.799016721Z,29.6,36.4,1.22,0.66,0.82,1.06,0.73,1.03,0.12,2.18,64,0,140,80,101,98,1,301,"pain, eye irritation, kidney issue, uric acid is high"
2,2023-05-27T07:46:26.059275087Z,29.7,36.6,1.22,0.66,0.82,1.06,0.73,1.03,0.12,2.18,64,0,140,80,101,98,1,301,"pain, eye irritation, kidney issue, uric acid is high"
2,2023-05-27T07:46:29.954999505Z,29.7,37,1.22,0.66,0.83,1.05,0.73,1.02,0.12,2.17,64,0,140,80,101,98,1,301,"pain, eye irritation, kidney issue, uric acid is high"
2,2023-05-27T07:46:33.415909234Z,29.7,37.3,1.22,0.66,0.83,1.05,0.73,1.02,0.12,2.17,64,0,140,80,101,98,1,301,"pain, eye irritation, kidney issue, uric acid is high"
2,2023-05-27T07:46:36.892970406Z,29.7,37.8,1.22,0.67,0.84,1.06,0.72,1.02,0.12,2.18,64,0,140,80,101,98,1,301,"pain, eye irritation, kidney issue, uric acid is high"
2,2023-05-27T07:46:39.552325195Z,29.8,38.2,1.22,0.67,0.85,1.06,0.72,1.02,0.12,2.18,64,0,140,80,101,98,1,301,"pain, eye irritation, kidney issue, uric acid is high"
2,2023-05-27T07:46:42.612706823Z,29.8,38.6,1.22,0.67,0.87,1.07,0.72,1.03,0.12,2.19,64,0,140,80,101,98,1,301,"pain, eye irritation, kidney issue, uric acid is high"
2,2023-05-27T07:46:45.312142807Z,29.9,39,1.24,0.68,0.99,1.14,0.74,1.04,0.12,2.19,64,0,140,80,101,98,1,301,"pain, eye irritation, kidney issue, uric acid is high"
2,2023-05-27T07:46:49.012606443Z,29.9,39.5,1.31,0.68,1.55,1.54,0.8,1.09,0.12,2.21,64,0,140,80,101,98,1,301,"pain, eye irritation, kidney issue, uric acid is high"
2,2023-05-27T07:46:52.879751731Z,29.9,39.3,1.4,0.68,2.1,1.94,0.86,1.15,0.12,2.26,64,0,140,80,101,98,1,301,"pain, eye irritation, kidney issue, uric acid is high"
2,2023-05-27T07:46:56.041003214Z,30,39,1.46,0.68,2.46,2.19,0.93,1.2,0.12,2.3,64,0,140,80,101,98,1,301,"pain, eye irritation, kidney issue, uric acid is high"
2,2023-05-27T07:46:59.634584919Z,30,38.8,1.5,0.69,2.61,2.34,0.97,1.22,0.12,2.32,64,0,140,80,101,98,1,301,"pain, eye irritation, kidney issue, uric acid is high"
2,2023-05-27T07:47:03.102374851Z,30,38.9,1.53,0.69,2.69,2.45,0.99,1.24,0.12,2.33,64,0,140,80,101,98,1,301,"pain, eye irritation, kidney issue, uric acid is high"
2,2023-05-27T07:47:06.622032358Z,30.1,39.2,1.55,0.69,2.73,2.53,1.02,1.26,0.12,2.34,64,0,140,80,101,98,1,301,"pain, eye irritation, kidney issue, uric acid is high"
2,2023-05-27T07:47:09.870405692Z,30.1,39.5,1.56,0.69,2.75,2.58,1.03,1.27,0.12,2.35,64,0,140,80,101,98,1,301,"pain, eye irritation, kidney issue, uric acid is high"